Погода в Воздвиженье

Россия / Ивановская область     57°29′56″N   42°00′57″E
темп.,
°C
ветер,
м/с
пор.,
м/с
влажн.,
%
обл.,
%
осадки,
мм/ч
давл.,
гПа
погр.,
м
5 марта, пт
пт500:00−12сз22930 0.0 100021
03:00−13з23960 0.0 100228
06:00−14з239871 0.0 100269
09:00−10зсз369463 0.0 1003221
12:00−6зсз359190 0.0 1004516
15:00−5зсз368695 0.1 1006803
18:00−8зсз399286 0.1 1008272
21:00−13сз389059 0.1 1010154
6 марта, сб
сб600:00−16з23940 0.0 101222
03:00−14зюз379535 0.1 1014220
06:00−14з389697 0.1 1014258
09:00−13зсз359596 0.1 1014237
12:00−10зсз358584 0.0 1015676
15:00−9зсз358498 0.1 1014852
18:00−13з239397 0.1 101347
21:00−16зюз239556 0.1 101337
7 марта, вс
вс700:00−17юз239728 0.0 101142
03:00−16ююз499527 0.0 1009188
06:00−13ю5129264 0.0 1004380
09:00−9ююз6139382 0.5 1000689
12:00−6ююз61193100 1.1 995939
15:00−5ю61093100 2.4 992902
18:00−5ю51095100 1.3 989680
21:00−7з71492100 2.0 990997
8 марта, пн
пн800:00−10зюз5138796 0.2 991502
03:00−12зюз5128891 0.2 991371
06:00−14зюз3891100 0.0 991250
09:00−12з4894100 0.3 991373
12:00−8сз4792100 0.9 993741
15:00−7ссз6987100 1.4 996955
18:00−11ссз41090100 0.1 999477
21:00−13ссз4109298 0.2 1003390
9 марта, вт
вт900:00−15ссз499399 0.0 1006375
03:00−18ссз389696 0.1 1008225
06:00−18ссз389599 0.0 1011305
09:00−18ссз469399 0.1 1013383
12:00−16ссз368990 0.0 1014483
15:00−15ссз478691 0.0 1016622
18:00−19ссз3594100 0.0 1016118
21:00−22ссз359896 0.0 101993